Location: Asbacherhof
(48.8543°N, 10.7903°E)
Time: 22:01:17
(UTC+00:00)

Cosmos 332 Rocket - Pass Details

Date: 26 May 2022
Orbit: 681 x 703 km, 74.0° (Epoch: 29 June)

Event Time Altitude Azimuth Distance (km) Brightness Sun altitude
Exits shadow 00:28:26 33° 176° (S) 1,131 4.4 -18.1°
Maximum altitude 00:30:24 62° 108° (ESE) 771 4.0 -18.0°
Drops below altitude 10° 00:35:08 10° 29° (NNE) 2,134 7.6 -17.7°
Sets 00:37:27 0° 26° (NNE) 3,054 8.8 -17.6°
